Location: Gu�tanj
(46.5431°N, 14.9692°E)
Time: 15:22:10
(UTC+00:00)

SeaSat 1 - Pass Details

Date: 03 March 2021
Orbit: 744 x 747 km, 108.0° (Epoch: 14 April)

Event Time Altitude Azimuth Distance (km) Brightness Sun altitude
Rises 17:55:12 0° 31° (NNE) 3,201 5.4 -12.2°
Reaches altitude 10° 17:57:31 10° 35° (NE) 2,273 4.7 -12.6°
Maximum altitude 18:02:24 60° 115° (ESE) 856 2.5 -13.4°
Drops below altitude 10° 18:07:15 10° 195° (SSW) 2,259 5.1 -14.2°
Sets 18:09:33 0° 199° (SSW) 3,179 5.9 -14.6°
